(229633) = 2003 UR373 = 2006 ED39

Discovered at Catalina on 2006-03-04 by CSS.

Orbit

Orbit type: Main Belt

Note: WebGL enabled browser required.

epoch2024-03-31.0
epoch JD2460400.5
perihelion date2020-04-22.53584
perihelion JD2458962.03584
argument of perihelion (°)272.56881
ascending node (°)261.95642
inclination (°)6.55552
eccentricity0.1574409
perihelion distance (AU)2.3671137
Tisserand w.r.t. Jupiter3.3
ΔV w.r.t. Earth (km/sec)9.9
semimajor axis (AU)2.8094332
mean anomaly (°)301.07509
mean daily motion (°/day)0.20930320
aphelion distance (AU)3.252
period (years)4.71
P-vector [x]-0.98897084
P-vector [y]0.13206302
P-vector [z]-0.06705253
Q-vector [x]-0.09569761
Q-vector [y]-0.91529452
Q-vector [z]-0.39125172
absolute magnitude15.99
phase slope0.15
uncertainty0
referenceMPEC 2024-E152
observations used457
oppositions15
arc length (days)8439
first opposition used2001
last opposition used2024
residual rms (arc-secs)0.74
perturbers coarse indicatorM-v
perturbers precise indicator003Ek
first observation date used2001-01-31.0
last observation date used2024-03-10.0
computer nameMPCLINUX
JD of orbit computation2456966.845453
perihelion JD uncertainty (days)5.2078E-05
argument of perihelion uncertainty (°)4.2340E-05
ascending node uncertainty (°)4.1256E-05
inclination uncertainty (°)3.0737E-06
eccentricity uncertainty 4.0156E-08
perihelion distance uncertainty (AU)1.1502E-07
Minimum Orbit Intersection Distances (in AU)
for orbit epoch: 2460400.5, reference: E2024-EF2
Mercury1.9767
Venus1.66269
Earth1.38336
Mars0.76125
Jupiter1.79299
Saturn6.14722
Uranus16.0827
Neptune26.6558

Observations

467 total observations over interval: 2001 01 31.33354 – 2024 03 10.54828
These data are available for download (format description).

Date (UT) J2000 RA J2000 Dec Magn Location Ref
2001 01 31.33354 09 04 23.52 +07 46 48.7   704 – Lincoln Laboratory ETS, New Mexico MPS 406991
2001 01 31.34846 09 04 22.59 +07 46 49.7   704 – Lincoln Laboratory ETS, New Mexico MPS 406991
2001 01 31.36338 09 04 21.72 +07 46 51.4   704 – Lincoln Laboratory ETS, New Mexico MPS 406991
2001 01 31.37831 09 04 20.87 +07 46 51.9   704 – Lincoln Laboratory ETS, New Mexico MPS 406991
2001 02 17.30893 08 49 17.00 +08 24 14.0   704 – Lincoln Laboratory ETS, New Mexico MPS 406991
2001 02 17.32278 08 49 16.29 +08 24 15.3   704 – Lincoln Laboratory ETS, New Mexico MPS 406991
2001 02 17.33672 08 49 15.60 +08 24 18.5   704 – Lincoln Laboratory ETS, New Mexico MPS 406991
2001 02 17.35519 08 49 14.98 +08 24 24.8 19.0   608 – Haleakala-AMOS MPS 286926
2001 02 17.36546 08 49 14.44 +08 24 27.0 19.2   608 – Haleakala-AMOS MPS 286926
2001 02 17.37572 08 49 13.94 +08 24 28.2 19.1   608 – Haleakala-AMOS MPS 286926
2003 10 17.171720 22 33 20.923 +00 13 43.58 21.26 V 645 – Apache Point-Sloan Digital Sky Survey MPS 212591
2003 10 17.175192 22 33 20.863 +00 13 42.74 21.97   645 – Apache Point-Sloan Digital Sky Survey MPS 212591
2003 10 19.159250 22 32 50.360 +00 06 02.02 21.41 V 645 – Apache Point-Sloan Digital Sky Survey MPS 212591
2003 10 19.162722 22 32 50.309 +00 06 01.32 22.24   645 – Apache Point-Sloan Digital Sky Survey MPS 212591
2003 10 22.151100 22 32 13.569 -00 04 48.19 21.29 V 645 – Apache Point-Sloan Digital Sky Survey MPS 212591
2003 10 22.154572 22 32 13.534 -00 04 48.91 21.97   645 – Apache Point-Sloan Digital Sky Survey MPS 212591
2003 10 24.146810 22 31 55.256 -00 11 30.83 21.46 V 645 – Apache Point-Sloan Digital Sky Survey MPS 212591
2003 10 24.150282 22 31 55.229 -00 11 31.54 22.10   645 – Apache Point-Sloan Digital Sky Survey MPS 212591
2006 02 24.33156 11 52 02.96 -10 49 48.2 19.8 V 703 – Catalina Sky Survey MPS 166423
2006 02 24.34091 11 52 02.53 -10 49 47.3 18.9 V 703 – Catalina Sky Survey MPS 166423
2006 02 24.35013 11 52 02.20 -10 49 47.4 19.0 V 703 – Catalina Sky Survey MPS 166423
2006 02 24.35934 11 52 01.77 -10 49 46.2 19.1 V 703 – Catalina Sky Survey MPS 166423
2006 02 24.37717 11 52 01.28 -10 49 45.2 19.7 R 644 – Palomar Mountain/NEAT MPS 166423
2006 02 24.40462 11 52 00.23 -10 49 43.9 19.3 R 644 – Palomar Mountain/NEAT MPS 166423
2006 02 24.43324 11 51 59.13 -10 49 41.6 18.9 R 644 – Palomar Mountain/NEAT MPS 166423
2006 03 04.31946 11 46 42.88 -10 34 33.2 18.7 V 703 – Catalina Sky Survey MPS 166423
2006 03 04.32767 11 46 42.49 -10 34 31.4 19.1 V 703 – Catalina Sky Survey MPS 166423
2006 03 04.33588 11 46 42.09 -10 34 30.6 18.8 V 703 – Catalina Sky Survey MPS 166423
2006 03 05.33777 11 45 57.83 -10 31 33.1 18.6 R 699 – Lowell Observatory-LONEOS MPS 166423
2006 03 05.35688 11 45 56.92 -10 31 29.4   699 – Lowell Observatory-LONEOS MPS 166423
2006 03 05.37600 11 45 56.11 -10 31 25.7   699 – Lowell Observatory-LONEOS MPS 166423
2006 03 05.39517 11 45 55.17 -10 31 22.4   699 – Lowell Observatory-LONEOS MPS 166423
2006 03 25.26594 11 30 16.24 -08 55 57.7 18.5 R 644 – Palomar Mountain/NEAT MPS 212630
2006 03 25.28771 11 30 15.19 -08 55 49.8 18.4 R 644 – Palomar Mountain/NEAT MPS 212630
2006 03 25.30815 11 30 14.24 -08 55 42.5 18.5 R 644 – Palomar Mountain/NEAT MPS 212630
2006 04 21.19014 11 16 50.75 -06 12 08.0 18.8 R 699 – Lowell Observatory-LONEOS MPS 212630
2006 04 21.21748 11 16 50.46 -06 11 58.8   699 – Lowell Observatory-LONEOS MPS 212630
2006 04 21.24484 11 16 50.15 -06 11 50.6   699 – Lowell Observatory-LONEOS MPS 212630
2006 04 21.27223 11 16 49.69 -06 11 41.3   699 – Lowell Observatory-LONEOS MPS 212630
2008 10 30.33246 23 47 11.76 +07 48 45.1 21.1 V G96 – Mt. Lemmon Survey MPS 263261
2008 10 30.33678 23 47 11.68 +07 48 44.0 21.1 V G96 – Mt. Lemmon Survey MPS 263261
2008 10 30.34104 23 47 11.58 +07 48 42.5 20.7 V G96 – Mt. Lemmon Survey MPS 263262
2008 10 30.34532 23 47 11.47 +07 48 41.1 21.2 V G96 – Mt. Lemmon Survey MPS 263262
2008 12 03.07897 23 45 47.77 +06 03 56.9 21.5 V G96 – Mt. Lemmon Survey MPS 267555
2008 12 03.08553 23 45 47.95 +06 03 56.8 21.9 V G96 – Mt. Lemmon Survey MPS 267555
2008 12 03.09210 23 45 48.06 +06 03 56.9 21.9 V G96 – Mt. Lemmon Survey MPS 267555
2008 12 03.09867 23 45 48.16 +06 03 56.0 21.2 V G96 – Mt. Lemmon Survey MPS 267555
2009 11 24.45527 06 00 39.20 +23 50 11.2 20.0 V 691 – Steward Observatory, Kitt Peak-Spacewatch MPS 304970
2009 11 24.48003 06 00 38.12 +23 50 07.2 20.4 V 691 – Steward Observatory, Kitt Peak-Spacewatch MPS 304970
2009 11 24.49782 06 00 37.38 +23 50 05.0 20.3 V 691 – Steward Observatory, Kitt Peak-Spacewatch MPS 304970
2009 12 10.39420 05 47 07.11 +23 12 24.6 19.2 V G96 – Mt. Lemmon Survey MPS 307329
2009 12 10.40075 05 47 06.72 +23 12 23.4 19.4 V G96 – Mt. Lemmon Survey MPS 307329
2009 12 10.40716 05 47 06.32 +23 12 22.2 19.3 V G96 – Mt. Lemmon Survey MPS 307329
2009 12 10.86262 05 46 39.94 +23 11 09.3 19.9 C 114 – Engelhardt Observatory, Zelenchukskaya Station MPS 307329
2009 12 10.86654 05 46 39.68 +23 11 08.3 19.9 C 114 – Engelhardt Observatory, Zelenchukskaya Station MPS 307329
2009 12 10.87038 05 46 39.48 +23 11 07.4 19.6 C 114 – Engelhardt Observatory, Zelenchukskaya Station MPS 307329
2009 12 17.23927 05 40 18.63 +22 53 35.2 19.4   704 – Lincoln Laboratory ETS, New Mexico MPS 307329
2009 12 17.25154 05 40 17.76 +22 53 31.4 19.6   704 – Lincoln Laboratory ETS, New Mexico MPS 307329
2009 12 17.26380 05 40 17.05 +22 53 29.4 19.6   704 – Lincoln Laboratory ETS, New Mexico MPS 307329
2009 12 17.27612 05 40 16.22 +22 53 27.6 20.1   704 – Lincoln Laboratory ETS, New Mexico MPS 307329
2009 12 17.28840 05 40 15.56 +22 53 25.8 19.7   704 – Lincoln Laboratory ETS, New Mexico MPS 307329
2010 02 19.14012 05 12 53.56 +20 35 49.7 20.3 V G96 – Mt. Lemmon Survey MPS 316612
2010 02 19.14548 05 12 53.67 +20 35 49.5 19.9 V G96 – Mt. Lemmon Survey MPS 316612
2010 02 19.15085 05 12 53.82 +20 35 49.7 19.9 V G96 – Mt. Lemmon Survey MPS 316612
2010 02 19.15625 05 12 53.96 +20 35 49.4 19.9 V G96 – Mt. Lemmon Survey MPS 316612
2010 03 06.678472 05 22 40.40 +20 30 52.8   C51 – WISE MPS 337180
2010 03 06.810777 05 22 46.79 +20 30 51.6   C51 – WISE MPS 337180
2010 03 06.943081 05 22 53.27 +20 30 50.9   C51 – WISE MPS 337180
2010 03 07.075384 05 22 59.78 +20 30 49.8   C51 – WISE MPS 337180
2010 03 07.141601 05 23 03.02 +20 30 49.2   C51 – WISE MPS 337180
2010 03 07.207689 05 23 06.25 +20 30 49.3   C51 – WISE MPS 337180
2010 03 07.207816 05 23 06.30 +20 30 48.5   C51 – WISE MPS 337180
2010 03 07.273904 05 23 09.54 +20 30 48.7   C51 – WISE MPS 337180
2010 03 07.406208 05 23 16.10 +20 30 47.7   C51 – WISE MPS 337180
2010 03 07.538513 05 23 22.69 +20 30 46.8   C51 – WISE MPS 337180
2010 03 07.80325 05 23 35.81 +20 30 44.7   C51 – WISE MPS 337180
2011 04 13.36446 14 41 11.78 -23 51 03.0 19.7   704 – Lincoln Laboratory ETS, New Mexico MPS 379591
2011 04 13.37642 14 41 11.21 -23 51 00.3 19.9   704 – Lincoln Laboratory ETS, New Mexico MPS 379591
2011 04 13.38820 14 41 10.74 -23 50 56.4 19.4   704 – Lincoln Laboratory ETS, New Mexico MPS 379591
2011 04 13.49597 14 41 06.259 -23 50 31.53 19.2 r F51 – Pan-STARRS 1, Haleakala MPS 379591
2011 04 13.50645 14 41 05.789 -23 50 29.15 19.2 r F51 – Pan-STARRS 1, Haleakala MPS 379591
2011 04 13.51852 14 41 05.251 -23 50 26.27 19.6 g F51 – Pan-STARRS 1, Haleakala MPS 379591
2011 04 13.52955 14 41 04.751 -23 50 23.77 19.6 g F51 – Pan-STARRS 1, Haleakala MPS 379591
2011 04 29.31151 14 28 27.87 -22 29 42.5 19.5 V 703 – Catalina Sky Survey MPS 381044
2011 04 29.31889 14 28 27.30 -22 29 39.4 18.8 V 703 – Catalina Sky Survey MPS 381044
2011 04 29.32627 14 28 26.90 -22 29 37.1 19.6 V 703 – Catalina Sky Survey MPS 381044
2011 05 08.29367 14 21 02.01 -21 30 40.5 18.6 V 703 – Catalina Sky Survey MPS 382977
2011 05 08.29767 14 21 01.76 -21 30 38.3 18.9 V 703 – Catalina Sky Survey MPS 382977
2011 05 08.30177 14 21 01.62 -21 30 37.2 18.9 V 703 – Catalina Sky Survey MPS 382977
2011 05 08.30582 14 21 01.44 -21 30 35.1 18.8 V 703 – Catalina Sky Survey MPS 382977
2011 05 21.26410 14 12 03.16 -20 01 40.5 19.2 R 926 – Tenagra II Observatory, Nogales MPS 383912
2011 05 21.27704 14 12 02.69 -20 01 35.5 19.0 R 926 – Tenagra II Observatory, Nogales MPS 383912
